Tracking 19193 objects as of 22-Jun-2018
HD Live streaming from Space Station
objects crossing your sky now

FENGYUN 1C DEB

Track FENGYUN 1C DEB now!
10-day predictions


NORAD ID: 31060
Int'l Code: 1999-025BFE
Perigee: 563.6 km
Apogee: 665.5 km
Inclination: 99.2 °
Period: 96.8 minutes
Semi major axis: 6985 km
RCS: 0.0121 m2 (small)
Launch date: May 10, 1999
Source: People's Republic of China (PRC)
Launch site: Taiyaun Space Center, China (TSC)

Note: This is SATELLITE DEBRIS
aabbcc
Your satellite tracking list
Your tracking list is empty




NASA's NSSDC Master Catalog

Two Line Element Set (TLE):
1 31060U 99025BFE 18172.15164895 +.00002367 +00000-0 +26008-3 0  9990
2 31060 099.1600 283.5156 0072922 023.6577 336.7960 14.86979061602574
Source of the keplerian elements: AFSPC